When you browse on this site, cookies collect data to enhance your experience and personalize the content and advertising you see.
Visit our Privacy Policy to learn more. By continuing to use the site, you agree to this use of cookies and data.
  • In Hungary
  • List of Countries
  • For 7 days
  • Water Temperature
  • Satellite Maps
  • Weather Map
  • News
  • Weather Widgets
  • user-avatar
    Login

    Hourly Weather Trenton

    Today, 19 February, Tuesday

    Time Temperature Precipitation Wind Pressure Humidity
    00:00 -4°C° 0 mm 4 mps 769 mmHg 56%
    01:00 -4°C° 0 mm 3 mps 770 mmHg 56%
    02:00 -5°C° 0 mm 3 mps 771 mmHg 54%
    03:00 -5°C° 0 mm 3 mps 771 mmHg 52%
    04:00 -5°C° 0 mm 3 mps 771 mmHg 50%
    05:00 -5°C° 0 mm 3 mps 772 mmHg 49%
    06:00 -5°C° 0 mm 3 mps 773 mmHg 48%
    07:00 -6°C° 0 mm 3 mps 773 mmHg 48%
    08:00 -5°C° 0 mm 3 mps 774 mmHg 44%
    09:00 -4°C° 0 mm 3 mps 774 mmHg 40%
    10:00 -2°C° 0 mm 3 mps 774 mmHg 37%
    11:00 -1°C° 0 mm 3 mps 774 mmHg 33%
    12:00 0°C° 0 mm 3 mps 774 mmHg 30%
    13:00 +1°C° 0 mm 3 mps 775 mmHg 26%
    14:00 +1°C° 0 mm 3 mps 774 mmHg 26%
    15:00 +2°C° 0 mm 3 mps 774 mmHg 26%
    16:00 +2°C° 0 mm 3 mps 774 mmHg 26%
    17:00 +1°C° 0 mm 3 mps 775 mmHg 29%
    18:00 +1°C° 0 mm 2 mps 775 mmHg 32%
    19:00 -1°C° 0 mm 2 mps 775 mmHg 35%
    20:00 -1°C° 0 mm 2 mps 775 mmHg 37%
    21:00 -1°C° 0 mm 2 mps 775 mmHg 39%
    22:00 -2°C° 0 mm 2 mps 775 mmHg 41%
    23:00 -2°C° 0 mm 2 mps 775 mmHg 42%

    Tomorrow, 20 February, Wednesday

    Time Temperature Precipitation Wind Pressure Humidity
    00:00 0°C° 0 mm 1 mps 775 mmHg 43%
    01:00 0°C° 0 mm 1 mps 775 mmHg 44%
    02:00 0°C° 0 mm 1 mps 775 mmHg 43%
    03:00 0°C° 0 mm 1 mps 775 mmHg 43%
    04:00 0°C° 0 mm 1 mps 775 mmHg 42%
    05:00 0°C° 0 mm 1 mps 775 mmHg 41%
    06:00 0°C° 0 mm 1 mps 775 mmHg 41%
    07:00 0°C° 0 mm 1 mps 775 mmHg 40%
    08:00 0°C° 0 mm 1 mps 775 mmHg 39%
    09:00 -1°C° 0 mm 2 mps 774 mmHg 38%
    10:00 -1°C° 0 mm 2 mps 774 mmHg 36%
    11:00 +1°C° 0.7 mm 1 mps 774 mmHg 54%
    12:00 0°C° 0.7 mm 1 mps 773 mmHg 72%
    13:00 0°C° 0.7 mm 1 mps 773 mmHg 90%
    14:00 0°C° 0.9 mm 1 mps 772 mmHg 91%
    15:00 -2°C° 0.9 mm 2 mps 771 mmHg 93%
    16:00 -2°C° 0.9 mm 2 mps 771 mmHg 95%
    17:00 -1°C° 0.4 mm 2 mps 770 mmHg 95%
    18:00 -1°C° 0.4 mm 2 mps 769 mmHg 95%
    19:00 +1°C° 0.4 mm 2 mps 769 mmHg 95%
    20:00 0°C° 0.6 mm 3 mps 767 mmHg 96%
    21:00 0°C° 0.6 mm 3 mps 766 mmHg 98%
    22:00 +1°C° 0.6 mm 3 mps 764 mmHg 99%
    23:00 +2°C° 3.4 mm 3 mps 763 mmHg 99%

    Day after tomorrow, 21 February, Thursday

    Time Temperature Precipitation Wind Pressure Humidity
    00:00 +4°C° 3.4 mm 2 mps 762 mmHg 99%
    01:00 +5°C° 3.4 mm 2 mps 760 mmHg 99%
    02:00 +5°C° 1.8 mm 2 mps 759 mmHg 99%
    03:00 +6°C° 1.8 mm 1 mps 758 mmHg 99%
    04:00 +6°C° 1.8 mm 1 mps 757 mmHg 99%
    05:00 +5°C° 0.3 mm 2 mps 757 mmHg 99%
    06:00 +4°C° 0.3 mm 3 mps 757 mmHg 98%
    07:00 +5°C° 0.3 mm 4 mps 756 mmHg 98%
    08:00 +5°C° 0 mm 4 mps 757 mmHg 97%
    09:00 +5°C° 0 mm 4 mps 757 mmHg 95%
    10:00 +6°C° 0 mm 5 mps 757 mmHg 94%
    11:00 +7°C° 0 mm 5 mps 758 mmHg 83%
    12:00 +9°C° 0 mm 6 mps 758 mmHg 72%
    13:00 +10°C° 0 mm 6 mps 758 mmHg 61%
    14:00 +9°C° 0 mm 6 mps 758 mmHg 60%
    15:00 +9°C° 0 mm 6 mps 759 mmHg 60%
    16:00 +9°C° 0 mm 5 mps 759 mmHg 59%
    17:00 +7°C° 0 mm 5 mps 760 mmHg 63%
    18:00 +6°C° 0 mm 5 mps 761 mmHg 66%
    19:00 +5°C° 0 mm 4 mps 762 mmHg 69%
    20:00 +4°C° 0 mm 4 mps 762 mmHg 70%
    21:00 +4°C° 0 mm 4 mps 763 mmHg 71%
    22:00 +3°C° 0 mm 4 mps 764 mmHg 72%
    23:00 +3°C° 0 mm 4 mps 764 mmHg 72%

    22 February, Friday

    Time Temperature Precipitation Wind Pressure Humidity
    00:00 +1°C° 0 mm 4 mps 765 mmHg 72%
    01:00 +1°C° 0 mm 3 mps 765 mmHg 72%
    02:00 +1°C° 0 mm 3 mps 766 mmHg 72%
    03:00 +1°C° 0 mm 3 mps 766 mmHg 73%
    04:00 0°C° 0 mm 3 mps 766 mmHg 73%
    05:00 +1°C° 0 mm 2 mps 767 mmHg 74%
    06:00 +1°C° 0 mm 2 mps 768 mmHg 76%
    07:00 -1°C° 0 mm 2 mps 768 mmHg 77%
    08:00 +2°C° 0 mm 2 mps 769 mmHg 71%
    09:00 +3°C° 0 mm 2 mps 770 mmHg 65%
    10:00 +4°C° 0 mm 2 mps 770 mmHg 59%
    11:00 +5°C° 0 mm 2 mps 770 mmHg 56%
    12:00 +6°C° 0 mm 2 mps 770 mmHg 53%
    13:00 +7°C° 0 mm 2 mps 770 mmHg 51%
    14:00 +7°C° 0 mm 2 mps 770 mmHg 51%
    15:00 +7°C° 0 mm 2 mps 770 mmHg 52%
    16:00 +7°C° 0 mm 2 mps 770 mmHg 52%
    17:00 +7°C° 0 mm 2 mps 770 mmHg 56%
    18:00 +7°C° 0 mm 1 mps 771 mmHg 60%
    19:00 +6°C° 0 mm 1 mps 771 mmHg 64%
    20:00 +5°C° 0 mm 1 mps 771 mmHg 66%
    21:00 +5°C° 0 mm 1 mps 772 mmHg 67%
    22:00 +5°C° 0 mm 1 mps 772 mmHg 69%
    23:00 +4°C° 0 mm 1 mps 772 mmHg 69%

    23 February, Saturday

    Time Temperature Precipitation Wind Pressure Humidity
    00:00 +4°C° 0 mm 1 mps 772 mmHg 70%
    01:00 +3°C° 0 mm 1 mps 771 mmHg 70%
    02:00 +3°C° 0 mm 1 mps 771 mmHg 70%
    03:00 +3°C° 0 mm 1 mps 771 mmHg 69%
    04:00 +3°C° 0 mm 1 mps 771 mmHg 69%
    05:00 +3°C° 0 mm 1 mps 771 mmHg 68%
    06:00 +3°C° 0 mm 1 mps 771 mmHg 68%
    07:00 +3°C° 0 mm 1 mps 771 mmHg 67%
    08:00 +4°C° 0 mm 1 mps 771 mmHg 64%
    09:00 +5°C° 0 mm 1 mps 772 mmHg 61%
    10:00 +6°C° 0 mm 1 mps 772 mmHg 57%
    11:00 +7°C° 0 mm 1 mps 771 mmHg 55%
    12:00 +7°C° 0 mm 2 mps 770 mmHg 52%
    13:00 +9°C° 0 mm 2 mps 769 mmHg 50%
    14:00 +9°C° 0 mm 2 mps 769 mmHg 52%
    15:00 +9°C° 0 mm 2 mps 768 mmHg 54%
    16:00 +9°C° 0 mm 3 mps 768 mmHg 55%
    17:00 +8°C° 0 mm 2 mps 767 mmHg 59%
    18:00 +7°C° 0 mm 2 mps 767 mmHg 63%
    19:00 +6°C° 0 mm 2 mps 767 mmHg 67%
    20:00 +6°C° 0 mm 2 mps 766 mmHg 70%
    21:00 +6°C° 0 mm 2 mps 766 mmHg 72%
    22:00 +6°C° 0 mm 2 mps 765 mmHg 74%
    23:00 +6°C° 1.3 mm 2 mps 764 mmHg 80%

    24 February, Sunday

    Time Temperature Precipitation Wind Pressure Humidity
    00:00 +6°C° 1.3 mm 2 mps 762 mmHg 86%
    01:00 +5°C° 1.3 mm 2 mps 761 mmHg 92%
    02:00 +5°C° 2.5 mm 3 mps 760 mmHg 94%
    03:00 +5°C° 2.5 mm 3 mps 758 mmHg 95%
    04:00 +7°C° 2.5 mm 3 mps 757 mmHg 97%
    05:00 +7°C° 3 mm 3 mps 756 mmHg 97%
    06:00 +7°C° 3 mm 2 mps 755 mmHg 98%
    07:00 +9°C° 3 mm 1 mps 754 mmHg 98%
    08:00 +9°C° 3.5 mm 1 mps 754 mmHg 98%
    09:00 +9°C° 3.5 mm 1 mps 753 mmHg 98%
    10:00 +9°C° 3.5 mm 1 mps 753 mmHg 98%
    11:00 +10°C° 1.3 mm 1 mps 752 mmHg 98%
    12:00 +10°C° 1.3 mm 1 mps 751 mmHg 98%
    13:00 +11°C° 1.3 mm 1 mps 750 mmHg 98%
    14:00 +12°C° 0.1 mm 2 mps 749 mmHg 96%
    15:00 +13°C° 0.1 mm 3 mps 748 mmHg 94%
    16:00 +15°C° 0.1 mm 4 mps 747 mmHg 92%
    17:00 +14°C° 0 mm 4 mps 747 mmHg 83%
    18:00 +13°C° 0 mm 4 mps 748 mmHg 74%
    19:00 +12°C° 0 mm 4 mps 748 mmHg 66%
    20:00 +10°C° 0 mm 5 mps 748 mmHg 65%
    21:00 +10°C° 0 mm 5 mps 749 mmHg 65%
    22:00 +9°C° 0 mm 5 mps 749 mmHg 65%
    23:00 +8°C° 0 mm 5 mps 749 mmHg 65%
    Show more